Other Public Products
Issued by NWS Charleston, SC

Current Version | Previous Version | Graphics & Text | Print | Product List | Glossary On
Versions: 1 2 3 4 5 6 7 8 9 10 11 12 13 14 15 16 17 18 19 20 21 22 23 24 25 26 27 28 29 30 31 32 33 34 35 36 37 38 39 40 41 42 43 44 45 46 47 48 49 50
000 FPUS82 KCHS 190727 OPUCHS TEST...KCHS/KSAV Gateway Observations...TEST National Weather Service Charleston SC 300 AM EDT SAT AUG 19 2017 NOTE: "fair" indicates few or no clouds below 12,000 feet with no significant weather and/or obstructions to visibility. SCZ050-WAZ558-NCZ071-TXZ119-213-PAZ071-DCZ001-FLZ074-172-MI076- NYZ176-178-MAZ016-IL014-TNZ027-NJZ106-GAZ044-MD014-190800- ...Gateway Observations for Charleston International... CITY SKY/WX TMP DP RH WIND PRES REMARKS Chas Airport PTCLDY 81 76 84 S7 29.94S Seattle MOCLDY 65 55 70 NE16 30.15S Charlotte PTCLDY 74 73 97 NE3 29.95F Dallas DFW PTCLDY 82 74 76 CALM 29.97F Dallas Love PTCLDY 83 73 72 VRB3 29.97F Philladelphia CLOUDY 76 73 91 SW10 29.83S Wash National CLOUDY 79 77 94 W7 29.86S Baltimore CLOUDY 76 76 100 W6 29.84S Miami PTCLDY 81 75 82 NW3 29.98F Detroit PTCLDY 63 60 90 S6 29.89S Newark CLOUDY 74 72 93 SW8 29.78F Laguardia CLOUDY 75 72 90 W9 29.77S J F K CLOUDY 73 73 100 W9 29.79R Boston Logan CLOUDY 71 71 100 SE3 29.74F FOG Ft. Lauderdale PTCLDY 81 75 82 N3 29.97F Chicago O`Hare PTCLDY 69 59 70 NW9 29.89S Chicago Midway MOCLDY 72 60 66 NW10 29.89R Houston Bush CLEAR 83 76 79 S5 30.00F HX 91 Houston Hobby CLEAR 82 76 81 S5 30.00F Nashville PTCLDY 70 67 90 CALM 29.99S Atlanta PTCLDY 73 65 75 NW6 30.00F $$ GAZ044-118-TXZ119-213-NCZ071-DCZ001-MDZ014-506-PAZ021-071-NJZ106- NYZ176-178-MAZ106-OHZ011-021-055-MIZ076-KYZ091-ILZ014-INZ047- MNZ060-ONZ431-190800- ...Gateway Observations for Savannah International... CITY SKY/WX TMP DP RH WIND PRES REMARKS Savannah Arpt CLEAR 79 74 84 SW6 29.96F Atlanta PTCLDY 73 65 75 NW6 30.00F Charlotte PTCLDY 74 73 97 NE3 29.95F Dallas DFW PTCLDY 82 74 76 CALM 29.97F Houston Bush CLEAR 83 76 79 S5 30.00F HX 91 Wash National CLOUDY 79 77 94 W7 29.86S Wash Dulles CLOUDY 76 75 97 SW5 29.88R Baltimore CLOUDY 76 76 100 W6 29.84S Philadelphia CLOUDY 76 73 91 SW10 29.83S Newark CLOUDY 74 72 93 SW8 29.78F Laguardia CLOUDY 75 72 90 W9 29.77S J F K CLOUDY 73 73 100 W9 29.79R Boston CLOUDY 71 71 100 SE3 29.74F FOG Pittsburg PTCLDY 68 65 90 W5 29.92F Akron CLEAR 66 60 81 SW3 29.92F Cleveland PTCLDY 68 64 87 SW5 29.92S Cincinnati CLOUDY 67 67 100 SW3 29.95F Columbus CLEAR 64 64 99 S3 29.93F Detroit PTCLDY 63 60 90 S6 29.89S Chicago O`Hare PTCLDY 69 59 70 NW9 29.89S Minneapolis CLEAR 62 58 86 CALM 29.92F Indianapolis MOCLDY 68 63 84 SW5 29.91F Toronto Canada MOCLDY 66 63 88 W12 29.79F $$

USA.gov is the U.S. government's official web portal to all federal, state and local government web resources and services.